Regional Weather Roundup
Issued by NWS

Home | Current Version | Previous Version | Text Only | Print | Product List | Glossary On
Versions: 1 2 3 4 5 6 7 8 9 10 11 12 13 14 15 16 17 18 19 20 21 22 23 24 25 26 27 28 29 30 31 32 33 34 35 36 37 38 39 40 41 42 43 44 45 46 47 48 49 50
000
ASHW40 PHFO 292343
RWRHI

WEATHER ROUNDUP FOR HAWAII
NATIONAL WEATHER SERVICE HONOLULU HI
100 PM HST MON JUN 29 2015

THIS IS AN AUTOMATED REPORT THAT HAS NOT BEEN QUALITY CONTROLLED.

NOTE..."FAIR" INDICATES FEW OR NO CLOUDS BELOW 12,000 FEET WITH NO
SIGNIFICANT WEATHER AND/OR OBSTRUCTIONS TO VISIBILITY.

* - THESE SITES REPORT LIMITED FIELDS

HIZ001>004-300000-
KAUAI-NIIHAU-

CITY           SKY/WX    TMP DP  RH WIND       PRES   REMARKS
LIHUE APT      SUNNY     83  72  69 NE8       29.98F
PORT ALLEN*    NOT AVBL
POIPU*           N/A     86 N/A N/A E6          N/A
PRINCEVILLE*     N/A     81 N/A N/A MISG        N/A
KOKOLE POINT*  NOT AVBL
MOLOAA DAIRY*  NOT AVBL
WAIMEA HTS*      N/A     82  70  65 SW7G13      N/A
PUU OPAE*        N/A     72  64  78 S6          N/A
PUU LUA*       NOT AVBL
MAKAHA RIDGE*    N/A     75  68  78 SW3G9       N/A
$$

HIZ005>011-300000-
OAHU-

CITY           SKY/WX    TMP DP  RH WIND       PRES   REMARKS
HONOLULU       MOSUNNY   85  71  63 S9        29.96F HX  90
KALAELOA       SUNNY     85  71  63 S8        29.97F HX  90
KANEOHE MCB    PTSUNNY   84  72  67 SE8       29.93F
WHEELER FIELD  DRIZZLE   81  68  65 VRB5      29.96S
BELLOWS*         N/A    N/A N/A N/A NE10        N/A
KAHUKU*          N/A    N/A N/A N/A E8G16       N/A
WHEELER*       NOT AVBL
WAIANAE HARBOR NOT AVBL
DILLINGHAM*      N/A     84  72  65 MISG        N/A
KAHUKU TRN*      N/A     72  59  64 E7G17       N/A
KAWAILOA*        N/A     79  68  69 N6G12       N/A
KII*             N/A     81  72  74 E12G17      N/A
MAKUA RANGE*     N/A     84  70  61 W3          N/A
OAHU FOREST NW   N/A    N/A N/A N/A CALM        N/A
SCHOFIELD BRK*   N/A     66  57  72 MISG        N/A
SCHOFIELD S*   NOT AVBL
WAIANAE VLY*     N/A     88  70  55 MISG        N/A  HX  92
KUAOKALA*        N/A     77  70  78 NW7         N/A
HONOULIUULI*   NOT AVBL
MOKUOLOE IS*     N/A    N/A N/A N/A MISG        N/A
PALEHUA*         N/A     72  68  88 S3          N/A
WAIAWA PHB*    NOT AVBL
$$

HIZ012>013-300000-
MOLOKAI-

CITY           SKY/WX    TMP DP  RH WIND       PRES   REMARKS
MOLOKAI AIRPT  MOSUNNY   85  68  56 S10G20    29.97F
KALAUPAPA      NOT AVBL
MAKAPULAPAI*     N/A     86  72  62 E15G22      N/A  HX  92
MOLOKAI 1*       N/A     84  68  58 SE3G12      N/A
PUU ALII*        N/A     68  65  91 NW1         N/A
$$

HIZ016-300000-
KAHOOLAWE-

CITY           SKY/WX    TMP DP  RH WIND       PRES   REMARKS
KAHOOLAWE*     NOT AVBL
HAKIOAWA*        N/A     80  72  75 MISG      30.38F
HONOKANAIA*      N/A     86  72  63 E18G29    29.95F HX  92
KANELOA*         N/A     79  70  73 E18G30    30.04S
KEALIALALO*      N/A     86  68  54 SE17G35   29.95F
LUA MAKIKA*    NOT AVBL
$$

HIZ014>015-300000-
LANAI-

CITY           SKY/WX    TMP DP  RH WIND       PRES   REMARKS
LANAI CITY     CLOUDY    79  68  69 W9G16     30.02F
LANAI 1*         N/A    N/A N/A N/A W7          N/A
$$

HIZ017>028-300000-
MAUI-

CITY           SKY/WX    TMP DP  RH WIND       PRES   REMARKS
KAHULUI        MOSUNNY   91  71  51 N17       29.94F HX  97
KAPALUA-W MAUI MOSUNNY   84  70  61 W7        29.97
HANA AIRPORT   MOSUNNY   84  72  65 SE9       29.97F
HANA*            N/A     84 N/A N/A SE9G20      N/A
HALEAKALA SUMM   N/A     64  18  16 SE5         N/A
MAALAEA BAY*   NOT AVBL
HALEAKALA*     NOT AVBL
KAUPO GAP*       N/A     79  64  61 SE7G15      N/A
KULA 1*          N/A     59  58  95 NW5G10      N/A
$$

HIZ023>026-300000-
BIG ISLAND OF HAWAII COAST AND LOWER SLOPES-

CITY           SKY/WX    TMP DP  RH WIND       PRES   REMARKS
KAILUA KONA    SUNNY     85  73  67 W8        29.94F HX  91
HILO           MOSUNNY   84  72  67 E10       29.96F
HONOKAA*       NOT AVBL
KAWAIHAE MWT*    N/A     82 N/A N/A W7          N/A
KAWAIHAE*        N/A     81 N/A N/A W8          N/A
SOUTH POINT*     N/A     82 N/A N/A E15G26      N/A
UPOLU AIRPORT*   N/A    N/A N/A N/A NE17G23     N/A
KAMUELA*       CLOUDY    79  66  65 W7        30.05F
HAKALAU*         N/A     67  58  72 S8G14       N/A
KALOKO-HONOKO*   N/A     84  73  70 W7        29.93F HX  91
PALI 2*          N/A     73  64  73 SE14G22     N/A
KEALAKOMO*       N/A     84  68  58 E15         N/A
KAUPULEHU*       N/A     81  66  61 W12G22      N/A
KAPAPALA*        N/A     77  67  71 E6G12       N/A
LOWER KAHUKU*    N/A     68  63  83 E2G9        N/A
PUHE CS*         N/A     84  72  65 W5G10       N/A
PUHO CS*         N/A     83  70  64 W3G9        N/A
PTA KEAMUKU*     N/A     73  66  78 CALM        N/A
WAIKOLOA*        N/A     84  70  61 NW9G17      N/A
$$

HIZ027>028-300000-
BIG ISLAND OF HAWAII INTERIOR AND SUMMMITS-

CITY           SKY/WX    TMP DP  RH WIND       PRES   REMARKS
BRADSHAW FIELD SUNNY     73  57  56 W13       30.29F
MK VISITOR CEN   N/A      0   0 100 MISG        N/A
MAUNA KEA*       N/A     48  32  53 S8          N/A
MAUNA LOA*       N/A     54  43  66 MISG        N/A
MAUNA LOA 1*   NOT AVBL
PTA KIPUKA*      N/A     73  57  56 N7G16       N/A
PTA RANGE 17*    N/A     52  39  62 NW12G17     N/A
PTA WEST*        N/A     55  46  71 NW10G17     N/A
NENE CABIN*      N/A     63  52  67 E7G15       N/A
AHUMOA*          N/A     65  58  77 N9G15       N/A
PTA PORTABLE*  NOT AVBL
PUU MALI*        N/A     63  57  82 NW8         N/A
$$

HIC003-300000-
NORTHWEST ISLANDS-

CITY           SKY/WX    TMP DP  RH WIND       PRES   REMARKS
MIDWAY ISLAND  PTSUNNY   82  64  54 W8        30.16S
MIDWAY NOS*    NOT AVBL
FRENCH FRIGATE NOT AVBL
$$

PHZ110>124-180-300000-
BUOY REPORTS

STATION/POSITION TIME  TEMP    WIND        PRES    WAVE   SWELL
                       AIR SEA DIR/SP/G            HT/PER HT/DIR
                 (UTC) (F)     (DEG/KT/KT) (MB)    (FT/S) (FT/D)
BUOY 51001       NOT AVBL
BUOY 51101       2300   78 81   90/  2/  4 1015.4F   4/10   3/350
BUOY 51100       NOT AVBL
BUOY 51002       2300   80 81   80/ 16/ 17 1012.6F   7/ 8   5/110
BUOY 51003       2300   80 82   90/  8/ 10 1014.4F   4/ 8   3
BUOY 51004       2247   79 80   70/ 16/ 19 1013.0F   7/ 9   5/110
BARBERS PT BUOY  NOT AVBL
WAIMEA BAY BUOY  2300      79                N/A     3/ 8
KAILUA BAY BUOY  2300      81                N/A     4/ 8   2/130
LANAI BUOY       NOT AVBL
BARBERS PT 2     2300      82                N/A     3/15   2/200
PAUWELA MAUI     2300      79                N/A     5/ 9   2/ 80
HILO             2300      80                N/A     5/ 8   2/120
KANEOHE BAY BUOY 2300      79                N/A     3/ 8
HANALEI KAUAI    2300      80                N/A     3/ 8
KAHULUI HARBOR   2300   81 80   50/ 15/ 19 1013.7F
HONOLULU HARBOR  2300   81 81  200/  8/ 12 1014.3F
KILO NALU        NOT AVBL
HILO HARBOR      2300   91 79   90/  8/ 11 1014.0F
MOKUOLOE         2300      82              1014.9F
NAWILIWILI       2300   79 80   80/  7/  8 1014.5F
WHOTS BUOY       NOT AVBL
BUOY 51028       NOT AVBL
$$

......................KEY........................................
  SKY/WX - SKY CONDITIONS/PRESENT WEATHER
  TMP    - TEMPERATURE IN FAHRENHEIT
  DWPT   - DEWPOINT IN FAHRENHEIT
  RH     - RELATIVE HUMIDITY IN PERCENT
  WIND   - DIRECTION AND SPEED /MPH FOR ISLANDS...KTS FOR BUOYS/
  PRES   - MEAN SEA LEVEL PRESSURE IN INCHES OF HG
  VSB    - VISIBILITY IN MILES
  HX     - HEAT INDEX
  WCI    - WIND CHILL INDEX
  VRB    - VARIABLE WIND DIRECTION
  N/A    - NOT AVAILABLE



USA.gov is the U.S. government's official web portal to all federal, state and local government web resources and services.